Flag for Germany Weather past 2 weeks in Öhringen, Baden-Württemberg, Germany

Now
62 °F

Clear.


Feels Like: 62 °F
Forecast: 55 / 84 °F
Wind: 2 mph from Northeast

Location: Oehringen

Current Time: Aug 2, 2014 at 1:47:20 AM

Latest Report: Aug 2, 2014 at 1:00 AM


Visibility: 11 mi

Pressure: 29.83 "Hg

Humidity: 77%

Dew point: 55 °F

Location of ÖhringenLocation

Historic Weather in Öhringen — Graph

°F

Öhringen temperature yesterday

Maximum temperature yesterday: 78 °F (at 7:00 PM)
Minimum temperature yesterday: 59 °F (at 6:00 AM)
Average temperature yesterday: 69 °F

Past Weeks' High & Low Weather Summary

 TemperatureHumidityPressure
High93 °F (Jul 19, 5:00 PM)98% (Jul 22, 4:00 AM)30.13 "Hg (Jul 22, 4:00 AM)
Low59 °F (Jul 24, 6:00 AM)21% (Jul 19, 5:00 PM)29.72 "Hg (Jul 28, 7:00 PM)
Average71 °F69%29.89 "Hg
* Reported Midnight between Jul 17 and Jul 18 — Midnight between Aug 1 and Aug 2, Öhringen, Weather by CustomWeather, © 2014

Note: Actual official high and low records may vary slightly from our data, if they occured in-between our weather recording intervals... More about our weather records

Advertising

Öhringen weather history for previous 24 hours

 ConditionsComfort  
Time TempWeatherWind HumidityBarometerVisibility
12:00 AM
Aug 2
62 °FClear.1 mph81%29.83 "Hg13 mi
11:00 PM
Aug 1
64 °FClear.1 mph80%29.83 "Hg12 mi
10:00 PM68 °FClear.1 mph70%29.83 "Hg18 mi
9:00 PM73 °FSunny.1 mph53%29.82 "Hg25 mi
8:00 PM78 °FSunny.1 mph44%29.80 "Hg28 mi
7:00 PM78 °FPassing clouds.2 mph42%29.80 "Hg28 mi
6:00 PM77 °FOvercast.2 mph46%29.81 "Hg31 mi
5:00 PM77 °FOvercast.2 mph46%29.82 "Hg25 mi
4:00 PM78 °FPartly sunny.2 mph44%29.83 "Hg25 mi
3:00 PM77 °FPartly sunny.3 mph45%29.84 "Hg31 mi
2:00 PM77 °FOvercast.2 mph45%29.85 "Hg37 mi
1:00 PM77 °FPassing clouds.3 mph46%29.85 "Hg28 mi
12:00 PM77 °FPassing clouds.5 mph44%29.87 "Hg15 mi
11:00 AM75 °FPassing clouds.3 mph51%29.88 "Hg25 mi
10:00 AM74 °FScattered clouds.3 mph62%29.88 "Hg19 mi
9:00 AM69 °FOvercast.1 mph74%29.90 "Hg7 mi
8:00 AM64 °FSunny.1 mph82%29.91 "Hg6 mi
7:00 AM59 °FSunny.2 mph91%29.92 "Hg6 mi
6:00 AM59 °FPartly sunny.2 mph91%29.93 "Hg5 mi
5:00 AM59 °FOvercast.2 mph91%29.93 "Hg6 mi
4:00 AM60 °FOvercast.1 mph90%29.93 "Hg7 mi
3:00 AM60 °FPassing clouds.2 mph89%29.94 "Hg6 mi
2:00 AM60 °FPassing clouds.1 mph90%29.95 "Hg6 mi
1:00 AM61 °FClear.1 mph90%29.96 "Hg9 mi
Weather by CustomWeather, © 2014

See weather overviewHow to use our weather pages